OpenBCM V1.13 (Linux)

Packet Radio Mailbox

DB0FHN

[JN59NK Nuernberg]

 Login: GUEST





  
LU9DCE > KEP      01.08.19 20:08l 247 Lines 12213 Bytes #-2517 (0) @ WW
BID : 29307_LU9DCE
Read: DJ6UX GUEST
Subj: TLE 01 08
Path: DB0FHN<DB0BLO<DB0ERF<IZ3LSV<I3XTY<I0OJJ<LU9DCE
Sent: 190801/1801Z 29307@LU9DCE.TOR.BA.ARG.SOAM LinBPQ6.0.17

>From lu9dce%lu9dce.tor.ba.arg.soam@i0ojj.ampr.org Thu Aug  1 20:02:11 2019
Received: from i0ojj.ampr.org by i0ojj.ampr.org (JNOS2.0k.3b) with SMTP
	id AA23764 ; Thu, 01 Aug 2019 20:02:11 +0200
Message-Id: <29307_lu9dce@lu9dce.bbs>
>From: lu9dce@lu9dce.tor.ba.arg.soam
X-JNOS-User-Port: Circuit  (X-YORK:VE3CGR-8 LU9DCE)  -> Sending message

            __    _  _  ___  ____   ___  ____    ____  ____  ____
           (  )  / )( \/ _ \(    \ / __)(  __)  (  _ \(  _ \/ ___)
           / (_/\) \/ (\__  )) D (( (__  ) _)    ) _ ( ) _ (\___ \
           \____/\____/(___/(____/ \___)(____)  (____/(____/(____/
               ESTACION DE PACKET RADIO - BUENOS AIRES (GF05OM)
                   BOLETINES INFORMATIVOS PROGRAMADOS (BIP)
                  SLACKWARE LINUX - HELLOCODELINUX@GMAIL.COM

+----------------------------------------------------------------------------+
OSCAR 7
1  7530U 74089B   19212.87672669 -.00000045  00000-0 -33289-6 0  9991
2  7530 101.7478 180.1008 0011717 264.3152 149.8133 12.53639031 45936
OSCAR 11 (UoSAT 2)
1 14781U 84021B   19213.08216171  .00000015  00000-0  79502-5 0  9992
2 14781  97.6089 235.7437 0008751 167.1843 192.9596 14.83097887905194
OSCAR 19 (LUSAT)
1 20442U 90005G   19212.89208365 -.00000032 +00000-0 +47549-5 0  9992
2 20442 098.6500 154.8243 0012338 027.2501 332.9328 14.32929530542507
EYESAT A
1 22825U 93061C   19212.87920517 -.00000013 +00000-0 +13145-4 0  9995
2 22825 098.9053 202.5062 0007520 228.4835 131.5702 14.30063337347854
ITAMSAT
1 22826U 93061D   19213.01071511 -.00000019  00000-0  10521-4 0  9995
2 22826  98.8993 202.6267 0008187 216.1109 143.9520 14.30397015348346
RADIO ROSTO
1 23439U 94085A   19212.88572804 -.00000035 +00000-0 +20933-3 0  9993
2 23439 064.8177 046.2739 0146152 104.8109 256.9056 11.27568637012764
JAS 2
1 24278U 96046B   19212.88215102 -.00000025 +00000-0 +80438-5 0  9996
2 24278 098.5431 000.4421 0351166 127.9341 235.4090 13.53092957133391
TECHSAT 1B
1 25397U 98043D   19212.77196527 -.00000029  00000-0  63361-5 0  9995
2 25397  98.6900 152.3980 0000176 313.1197  46.9967 14.23668238 94004
ISS (ZARYA)
1 25544U 98067A   19213.60208823  .00002233  00000-0  45530-4 0  9996
2 25544  51.6443 135.9519 0006471 205.3691 213.9431 15.51029024182308
PCSAT
1 26931U 01043C   19212.56782855 -.00000037 +00000-0 +17593-4 0  9990
2 26931 067.0499 253.0397 0007337 275.7230 084.3035 14.30548140931100
SAUDISAT 1C
1 27607U 02058C   19212.78688141 -.00000033  00000-0  16296-4 0  9990
2 27607  64.5547 277.8390 0079750 248.2333 111.0269 14.75561672893390
CUTE-1
1 27844U 03031E   19212.92073440 +.00000026 +00000-0 +31228-4 0  9994
2 27844 098.6837 220.4872 0008580 265.8193 094.2005 14.22187455834394
CUBESAT XI 4
1 27848U 03031J   19212.92518616 +.00000016 +00000-0 +27307-4 0  9999
2 27848 098.6914 221.0010 0008503 279.0628 080.9588 14.21781591834253
MOZHAYETS 4
1 27939U 03042A   19213.02477304 -.00000018  00000-0  53624-5 0  9997
2 27939  98.0458 348.0087 0011788 292.8563  67.1383 14.66792460846894
CUBESAT XI 5
1 28895U 05043F   19212.91836114 +.00000056 +00000-0 +19527-4 0  9991
2 28895 097.9649 354.1816 0016124 211.0300 148.9952 14.63678513733574
CUTE-1.7+APD II
1 32785U 08021C   19213.18434702  .00000100  00000-0  16347-4 0  9997
2 32785  97.5505 210.8495 0014541 115.6687 244.6034 14.88325573610158
DELFI C3
1 32789U 08021G   19212.91044996 +.00000309 +00000-0 +24683-4 0  9996
2 32789 097.4614 261.2657 0011569 345.7179 014.3720 15.07022243613372
SEEDS
1 32791U 08021J   19212.99533797  .00000073  00000-0  12786-4 0  9998
2 32791  97.5282 216.6862 0015058  93.3896 266.9045 14.90842128610564
YUBELEINY
1 32953U 08025A   19213.10590181  .00000020  00000-0  75656-4 0  9993
2 32953  82.5035 117.7709 0020321  35.5600 324.6831 12.43090809507708
PRISM (HITOMI)
1 33493U 09002B   19212.85138997  .00000308  00000-0  32557-4 0  9995
2 33493  98.1203 135.4433 0016033  43.9515 316.2977 14.96683255571603
KKS-1 (KISEKI)
1 33499U 09002H   19212.87403326 +.00000037 +00000-0 +13480-4 0  9997
2 33499 098.3481 052.9532 0010460 071.7238 288.5108 14.75451440565168
SWISSCUBE
1 35932U 09051B   19213.02023804  .00000054  00000-0  23254-4 0  9991
2 35932  98.5920  20.2700 0008332  40.5222 319.6594 14.56296142523084
BEESAT
1 35933U 09051C   19212.47095339 +.00000053 +00000-0 +22905-4 0  9993
2 35933 098.5942 021.4818 0006784 055.3157 304.8678 14.56383834523031
ITUPSAT 1
1 35935U 09051E   19212.41582647 +.00000034 +00000-0 +19123-4 0  9999
2 35935 098.6053 021.6600 0009038 051.1206 309.0795 14.55542239522820
XIWANG-1 (HOPE-1)
1 36122U 09072B   19212.67836374 -.00000051 +00000-0 -22441-4 0  9996
2 36122 100.0738 213.0377 0006774 247.0551 112.9848 13.16350031462532
TISAT 1
1 36799U 10035E   19212.96493493  .00000259  00000-0  32214-4 0  9997
2 36799  98.1610   6.5650 0011098 308.1456  51.8760 14.91125261491215
JUGNU
1 37839U 11058B   19212.90364830 +.00000271 +00000-0 +27576-5 0  9995
2 37839 019.9621 072.7330 0018935 083.5275 029.9962 14.12654580403266
SRMSAT
1 37841U 11058D   19212.93603653 +.00000275 +00000-0 +59557-5 0  9998
2 37841 019.9719 130.2056 0011722 311.8929 120.7272 14.10635637402715
M-CUBED/EXP-1 PRIME
1 37855U 11061F   19213.19784100  .00000640  00000-0  40196-4 0  9997
2 37855 101.7107 131.1256 0173252 307.9206  50.6451 15.05507411423327
HORYU 2
1 38340U 12025D   19213.03782912  .00000079  00000-0  19623-4 0  9997
2 38340  98.3262 252.9225 0011176 353.1232   6.9821 14.75732625387558
STRAND 1
1 39090U 13009E   19212.52583691 +.00000001 +00000-0 +15572-4 0  9993
2 39090 098.4851 057.7582 0009550 154.7017 205.4638 14.35091352336515
SOMP
1 39134U 13015E   19212.58131473 +.00000548 +00000-0 +34385-4 0  9991
2 39134 064.8618 241.4780 0033616 296.0777 063.6892 15.20219144346734
BEESAT 3
1 39135U 13015F   19213.04091020  .00000288  00000-0  24205-4 0  9998
2 39135  64.8687 258.8984 0027246 312.3700  47.5119 15.17520415346824
BEESAT 2
1 39136U 13015G   19213.22612387  .00000117  00000-0  15950-4 0  9992
2 39136  64.8689 262.2514 0021338 300.4400  59.4618 15.16944817346771
CUBEBUG 1
1 39153U 13018D   19213.21877526  .00000073  00000-0  16468-4 0  9997
2 39153  97.9801 311.1024 0018156  60.3783 299.9235 14.80578585338258
ZACUBE
1 39417U 13066B   19212.94193806 +.00000111 +00000-0 +20461-4 0  9995
2 39417 097.5619 224.0128 0057402 251.7725 107.7236 14.81129581307443
TRITON 1
1 39427U 13066M   19212.87867361  .00000151  00000-0  32039-4 0  9990
2 39427  97.6793 187.5942 0114627  27.9001 332.8288 14.67857142304673
GOMX 1
1 39430U 13066Q   19213.37013589  .00000098  00000-0  26285-4 0  9991
2 39430  97.7498 167.0534 0152277 116.2621 245.4329 14.59265008302974
HUMSAT D
1 39433U 13066T   19212.66421077 +.00000348 +00000-0 +39169-4 0  9993
2 39433 097.5507 258.4078 0031539 154.7141 205.5631 14.92215619308301
CUBEBUG 2
1 39440U 13066AA  19212.93857252 +.00000111 +00000-0 +22621-4 0  9992
2 39440 097.6033 208.8247 0078967 305.2067 054.1767 14.75867808305159
FUNCUBE 1
1 39444U 13066AE  19212.91861106 +.00000134 +00000-0 +22958-4 0  9995
2 39444 097.5599 225.9784 0056580 245.3203 114.2113 14.81951136305741
UWE-3
1 39446U 13066AG  19213.00401053  .00000108  00000-0  21213-4 0  9993
2 39446  97.5816 215.9567 0068433 278.9918  80.3553 14.78402277305663
SPROUT
1 39770U 14029E   19213.36002252  .00000330  00000-0  42671-4 0  9998
2 39770  97.8857 316.3733 0008226 309.4112  50.6363 14.87374065281320
UNISAT 6
1 40012U 14033C   19212.57867902 +.00000117 +00000-0 +24958-4 0  9998
2 40012 097.7524 077.3311 0057468 320.7851 038.9201 14.73989985275001
DUCHIFAT 1
1 40021U 14033M   19213.37767876  .00000092  00000-0  15268-4 0  9992
2 40021  97.9231 138.1162 0011348 266.7596  93.2323 14.90650436278052
QB50P1
1 40025U 14033R   19213.31470950  .00000160  00000-0  22989-4 0  9998
2 40025  97.9045 132.9279 0010967 277.6417  82.3554 14.88959477277811
CHUBUSAT 1
1 40300U 14070C   19213.30319434  .00000300  00000-0  16055-4 0  9996
2 40300  97.3246 286.3802 0018620 263.4342 136.7139 15.22117482262654
NUDT-PHONESAT
1 40900U 15049B   19213.28086439  .00001238  00000-0  55760-4 0  9999
2 40900  97.4366 222.1866 0014029  37.9705  89.7053 15.22885827214292
ZDPS 2A
1 40901U 15049C   19213.32855705  .00000499  00000-0  28012-4 0  9993
2 40901  97.4592 218.5206 0014870  54.9336  72.3077 15.17765307213853
ZDPS 2B
1 40902U 15049D   19213.07943808  .00000508  00000-0  28573-4 0  9991
2 40902  97.4544 215.7452 0014994  53.3987 347.5657 15.17593458213795
XW-2A
1 40903U 15049E   19213.38369277  .00000974  00000-0  24859-4 0  9998
2 40903  97.3346 256.3884 0013550 354.5578  62.3433 15.41949378216985
KAITUO 1A
1 40904U 15049F   19213.38893322  .00000193  00000-0  13682-4 0  9997
2 40904  97.4669 214.6483 0016162  59.0397  78.6990 15.15384634213619
OBJECT G
1 40905U 15049G   19212.89206670 -.00000074  00000-0 -44021-6 0  9990
2 40905  97.4714 211.6694 0017102  56.1299   8.4166 15.14307931213414
XW-2C
1 40906U 15049H   19212.90957141 +.00000202 +00000-0 +14088-4 0  9998
2 40906 097.4681 214.2714 0016196 052.7692 034.5718 15.15701409213547
XW-2D
1 40907U 15049J   19212.74965315  .00000289  00000-0  18536-4 0  9990
2 40907  97.4657 213.7926 0015655  50.9232  35.6182 15.15891397213531
LILACSAT 2
1 40908U 15049K   19213.29257450  .00000092  00000-0  86854-5 0  9997
2 40908  97.4795 213.1267 0017366  54.9379  70.9760 15.13817357213406
XW-2F
1 40910U 15049M   19212.80982700  .00000718  00000-0  39264-4 0  9996
2 40910  97.4627 215.9016 0016081  44.4939  80.5802 15.17340703213554
XW-2B
1 40911U 15049N   19213.25432847  .00000289  00000-0  18551-4 0  9998
2 40911  97.4677 214.9451 0015374  50.5425  79.3156 15.15822125213508
